Location: Port Huron
(43.0000°N, 82.2400°W)
Time: 21:41:01
(UTC-05:00)

ISS - Visible Passes

Search period start: 21 January 2019 00:00
Search period end: 31 January 2019 00:00
Orbit: 404 x 410 km, 51.6° (Epoch: 22 January)

Date Brightness Start Highest point End Pass type
(mag) Time Alt. Az. Time Alt. Az. Time Alt. Az.
21 Jan -2.2 18:54:45 10° S 18:57:06 21° SE 18:57:06 21° SE visible
22 Jan -1.5 18:05:01 10° SSE 18:06:11 11° SE 18:07:21 10° ESE visible
22 Jan -2.3 19:38:57 10° SW 19:40:59 35° SW 19:40:59 35° SW visible
23 Jan -3.5 18:47:47 10° SW 18:50:57 49° SE 18:52:01 33° E visible
23 Jan -0.2 20:24:39 10° W 20:24:45 11° W 20:24:45 11° W visible
24 Jan -2.7 19:32:59 10° W 19:35:43 40° NW 19:35:43 40° NW visible
25 Jan -3.7 18:41:28 10° WSW 18:44:44 70° NNW 18:46:36 23° NE visible
25 Jan -0.4 20:19:05 10° WNW 20:19:20 11° WNW 20:19:20 11° WNW visible
26 Jan -2.2 19:27:17 10° WNW 19:30:09 26° NNW 19:30:09 26° NNW visible
27 Jan -2.7 18:35:33 10° W 18:38:37 36° NNW 18:40:55 15° NE visible
27 Jan -0.5 20:13:27 10° NW 20:13:38 11° NW 20:13:38 11° NW visible
28 Jan -1.8 19:21:40 10° WNW 19:24:12 20° N 19:24:22 20° N visible
29 Jan -2.1 18:29:50 10° WNW 18:32:34 24° NNW 18:35:04 11° NE visible
29 Jan -0.7 20:07:30 10° NW 20:07:46 11° NW 20:07:46 11° NW visible
30 Jan -1.8 19:15:53 10° NW 19:18:15 18° N 19:18:27 18° N visible
